Location: Darmstadt
(49.8706°N, 8.6494°E)
Time: 07:19:07
(UTC+01:00)

Cosmos 1606 Rocket - Pass Details

Date: 31 October 2020
Orbit: 603 x 632 km, 82.5° (Epoch: 03 December)

Event Time Altitude Azimuth Distance (km) Brightness Sun altitude
Rises 17:36:17 0° 186° (S) 2,872 7.3 -5.8°
Reaches altitude 10° 17:38:29 10° 185° (S) 1,977 6.4 -6.2°
Maximum altitude 17:42:52 82° 98° (E) 634 3.6 -6.8°
Drops below altitude 10° 17:47:19 10° 12° (NNE) 2,011 5.9 -7.5°
Sets 17:49:34 0° 11° (N) 2,927 6.8 -7.9°
